Probability
3 2 0 0 0 0 0 0 0 0 0 0 0 0 0 0 0 0 0 0 0 0 0 0 0 0 0 0 0 0 0 0 0 0 0 0 0 0
4 2 1 0 0 0 0 0 0 0 0 0 0 0 0 0 0 0 0 0 0 0 0 0 0 0 0 0 0 0 0 0 0 0 0 0 0 0
4 3 1 0 0 0 0 0 0 0 0 0 0 0 0 0 0 0 0 0 0 0 0 0 0 0 0 0 0 0 0 0 0 0 0 0 0 0
3 3 2 1 0 0 0 0 0 0 0 0 0 0 0 0 0 0 0 0 0 0 0 0 0 0 0 0 0 0 0 0 0 0 0 0 0 0
3 3 2 1 0 0 0 0 0 0 0 0 0 0 0 0 0 0 0 0 0 0 0 0 0 0 0 0 0 0 0 0 0 0 0 0 0 0
2 2 1 1 0 0 0 0 0 0 0 0 0 0 0 0 0 0 0 0 0 0 0 0 0 0 0 0 0 0 0 0 0 0 0 0 0 0
2 1 0 0 0 0 0 0 0 0 0 0 0 0 0 0 0 0 0 0 0 0 0 0 0 0 0 0 0 0 0 0 0 0 0 0 0 0
1 1 0 0 0 0 0 0 0 0 0 0 0 0 0 0 0 0 0 0 0 0 0 0 0 0 0 0 0 0 0 0 0 0 0 0 0 0
2 2 1 1 0 0 0 0 0 0 0 0 0 0 0 0 0 0 0 0 0 0 0 0 0 0 0 0 0 0 0 0 0 0 0 0 0 0
3 3 3 2 1 0 0 0 0 0 0 0 0 0 0 0 0 0 0 0 0 0 0 0 0 0 0 0 0 0 0 0 0 0 0 0 0 0
3 3 3 3 2 0 0 0 0 0 0 0 0 0 0 0 0 0 0 0 0 0 0 0 0 0 0 0 0 0 0 0 0 0 0 0 0 0
3 3 3 3 1 0 0 0 0 0 0 0 0 0 0 0 0 0 0 0 0 0 0 0 0 0 0 0 0 0 0 0 0 0 0 0 0 0
3 3 3 1 0 0 0 0 0 0 0 0 0 0 0 0 0 0 0 0 0 0 0 0 0 0 0 0 0 0 0 0 0 0 0 0 0 0
3 3 2 1 0 0 0 1 0 0 0 0 0 0 0 0 0 0 0 0 0 0 0 0 0 0 0 0 0 0 0 0 0 0 0 0 0 0
1 2 2 1 0 0 0 0 0 0 0 0 0 0 0 0 0 0 0 0 0 0 0 0 0 0 0 0 0 0 0 0 0 0 0 0 0 0
0 1 1 0 0 0 0 0 0 0 0 0 0 0 0 0 0 0 0 0 0 0 0 0 0 0 0 0 0 0 0 0 0 0 0 0 0 0
0 0 0 0 0 0 0 0 0 0 0 0 0 0 0 0 0 0 0 0 0 0 0 0 0 0 0 0 0 0 0 0 0 0 0 0 0 0
0 0 0 0 0 0 0 0 0 0 0 0 0 0 0 0 0 0 0 0 0 0 0 0 0 0 0 0 0 0 0 0 0 0 0 0 0 0
0 0 0 0 0 0 0 0 0 0 0 0 0 0 0 0 0 0 0 0 0 0 0 0 0 0 0 0 0 0 0 0 0 0 0 0 0 0
0 0 0 0 0 0 0 0 0 0 0 0 0 0 0 0 0 0 0 0 0 0 0 0 0 0 0 0 0 0 0 0 0 0 0 0 0 0
0 0 0 0 0 0 0 0 0 0 0 0 0 0 0 0 0 0 0 0 0 0 0 0 0 0 0 0 0 0 0 0 0 0 0 0 0 0
0 0 0 0 0 0 0 0 0 0 0 0 0 0 0 0 0 0 0 0 0 0 0 0 0 0 0 0 0 0 0 0 0 0 0 0 0 0
0 0 0 0 0 0 0 0 0 0 0 0 0 0 0 0 0 0 0 0 0 0 0 0 0 0 0 0 0 0 0 0 0 0 0 0 0 0
Wind_Speed
2 2 2 2 2 2 3 4 4 2 2 3 1 2 2 2 3 3 3 5 7 7 6 6 7 7 6 6 6 6 6 6 6 6 6 6 7 7
2 2 2 1 1 1 2 2 3 4 3 3 2 2 2 3 3 3 4 6 7 7 7 7 7 7 7 7 6 7 7 7 7 7 7 7 7 6
2 2 2 2 2 1 2 2 2 2 2 2 1 1 2 2 2 2 3 3 4 7 8 8 8 8 8 8 7 7 7 7 7 7 7 7 7 6
3 3 3 2 2 1 2 2 2 2 3 2 1 1 2 3 3 3 3 3 3 6 7 8 9 9 9 9 8 8 8 8 8 8 7 7 7 7
4 4 4 3 2 2 2 2 2 2 2 2 2 2 1 1 1 1 2 1 3 4 5 7 8 9 9 9 9 9 8 8 8 8 8 8 7 7
4 4 4 5 4 4 3 3 2 2 2 2 1 1 1 1 1 1 1 1 2 3 3 4 5 7 8 9 10 10 10 10 9 9 9 9 8 8
3 4 5 6 6 5 4 3 3 2 2 2 2 1 1 1 2 2 2 2 3 2 2 2 2 3 4 7 9 11 11 11 11 11 10 10 9 9
3 4 4 5 6 6 6 6 6 5 4 3 3 3 3 3 2 2 2 1 3 2 1 3 2 3 4 4 8 11 11 11 11 11 11 11 10 10
4 4 4 4 5 4 5 5 5 7 7 6 5 5 5 5 4 3 3 3 4 3 1 3 2 4 4 5 9 11 11 11 11 12 12 11 11 10
4 5 5 4 5 4 4 3 4 5 6 6 6 6 6 5 6 5 5 3 3 3 3 3 3 4 4 4 8 11 11 11 11 11 11 11 10 10
4 4 5 5 6 6 4 4 4 4 6 7 8 7 7 7 5 3 2 1 2 3 3 3 3 2 3 4 6 9 10 10 10 10 10 10 10 8
3 3 5 5 6 7 5 5 5 5 3 3 4 5 5 6 7 7 6 4 3 3 3 3 2 1 2 3 3 3 4 7 9 10 10 10 8 4
2 3 3 5 6 7 6 6 8 6 3 3 3 3 3 3 5 5 6 6 5 5 4 3 2 2 2 3 3 3 3 3 3 4 7 9 9 8
3 3 3 5 6 6 6 7 7 5 3 3 3 4 4 4 5 5 6 7 7 8 6 5 4 4 3 3 4 3 2 3 3 3 3 5 7 10
3 4 5 5 5 4 7 8 5 3 3 3 5 5 5 5 4 3 4 5 5 6 6 6 5 4 4 4 4 3 2 3 3 3 3 4 4 4
2 3 4 4 3 4 4 4 3 4 4 5 5 4 3 3 3 3 3 3 3 4 4 5 6 6 4 5 4 4 3 3 2 2 3 3 3 4
1 0 1 1 1 2 2 3 3 3 4 4 4 4 4 3 4 3 3 3 4 4 4 3 3 4 5 4 4 5 4 3 3 3 2 2 3 4
2 1 2 2 3 3 3 3 3 3 3 3 3 4 4 4 4 3 3 4 5 5 4 3 2 0 1 3 6 5 4 4 3 3 3 3 4 3
2 2 3 3 3 3 3 3 3 3 3 3 3 4 4 4 4 4 3 3 4 4 4 3 3 3 3 4 4 5 5 3 2 2 3 3 4 4
2 3 3 3 3 3 3 3 3 3 2 3 3 4 4 4 4 4 4 4 4 4 3 3 3 5 6 5 4 3 5 5 3 3 3 2 2 2
3 3 3 3 2 3 3 3 3 3 3 3 3 3 4 3 4 4 4 6 5 4 4 5 6 6 3 1 1 3 2 4 5 4 3 2 1 1
3 3 3 3 3 3 2 2 2 2 3 3 3 3 3 3 4 5 4 4 4 5 5 4 2 2 3 3 4 4 3 2 2 4 4 5 4 4
3 3 3 3 3 2 2 2 3 2 2 2 3 3 3 3 3 3 4 4 4 4 4 3 2 2 3 4 4 3 4 3 2 1 2 4 7 8
Wind_Direction
187 184 184 198 180 172 155 154 152 170 238 251 247 231 209 201 212 199 206 213 210 211 215 218 218 217 216 222 227 227 224 225 229 231 234 238 241 243
188 181 198 202 193 182 165 159 156 159 200 231 228 229 207 204 205 200 217 221 219 220 222 225 225 224 222 224 229 231 230 228 230 232 234 238 241 240
197 188 202 189 190 192 160 154 162 150 174 245 238 230 197 209 209 220 228 223 228 227 228 230 229 228 227 227 229 233 233 230 229 230 233 237 239 239
205 199 211 197 189 178 168 177 179 172 162 197 233 224 223 217 208 217 230 227 233 237 236 237 234 230 227 228 230 230 229 228 228 229 230 233 235 236
203 200 205 183 203 208 195 192 190 181 153 165 212 223 240 223 204 250 248 257 248 248 245 242 238 234 230 228 229 228 226 225 227 226 227 230 234 236
212 206 203 194 203 205 201 196 185 167 156 163 196 229 235 240 149 206 273 272 262 258 260 254 247 243 236 231 231 231 228 226 227 226 227 229 231 233
225 221 218 211 209 203 202 193 184 181 178 181 198 199 221 201 215 209 221 260 267 244 262 267 255 251 244 237 236 233 229 229 230 229 229 230 230 232
230 235 232 220 217 213 208 197 186 187 192 191 201 207 220 215 202 201 188 189 274 254 212 266 243 251 247 235 237 235 233 232 232 232 232 232 232 233
216 220 232 228 212 210 217 216 215 214 199 188 198 214 210 207 193 205 210 209 229 236 189 259 248 254 254 249 242 238 236 235 236 235 234 233 232 233
220 216 218 226 222 208 207 215 226 229 219 206 208 220 221 211 200 203 210 227 263 249 183 233 251 249 260 251 247 239 237 236 236 234 233 232 231 232
233 225 219 218 220 206 199 219 243 254 247 233 226 229 230 223 205 180 193 196 262 265 207 204 238 252 262 256 252 243 239 238 238 234 231 230 230 228
255 246 233 223 217 206 204 208 229 244 246 264 253 248 238 233 217 200 197 201 219 253 232 195 226 207 282 273 260 251 240 243 240 236 232 231 225 214
240 251 247 229 226 224 218 215 226 228 229 231 245 249 244 234 226 215 204 199 205 231 224 184 210 202 217 276 289 260 232 233 230 236 231 228 218 202
233 242 247 246 243 243 236 234 235 228 214 222 236 243 240 240 236 227 220 217 218 226 224 192 201 203 209 247 269 275 259 236 216 224 224 221 219 215
243 249 260 264 258 248 239 239 231 212 204 219 234 240 234 235 235 236 239 232 239 243 234 213 210 209 199 219 240 241 258 263 221 218 218 211 213 203
260 270 273 268 259 254 256 247 229 215 212 223 234 243 241 238 236 226 232 233 246 265 252 227 216 204 214 227 224 237 225 235 240 221 214 225 218 207
226 290 312 296 284 282 274 260 245 229 230 232 232 243 244 241 243 230 220 218 222 240 260 263 233 215 212 208 227 237 234 236 230 213 200 236 242 223
172 207 236 245 246 249 257 262 254 242 238 236 237 236 240 242 247 240 219 220 230 235 238 240 223 238 313 269 225 230 234 234 233 210 193 216 254 249
181 228 241 245 250 250 250 245 247 245 237 236 243 245 240 241 243 244 238 234 236 236 236 224 204 190 213 257 272 220 214 226 219 219 208 207 230 247
221 235 244 249 249 248 251 253 252 254 245 243 250 255 246 237 238 240 236 234 238 238 241 229 214 208 212 226 242 259 219 209 203 217 225 216 243 268
245 248 248 250 253 254 257 255 248 246 250 245 246 250 247 233 236 238 236 241 235 233 237 239 234 223 210 166 249 274 268 226 210 204 197 192 227 264
247 245 248 248 246 246 250 250 249 252 255 252 252 251 251 241 239 241 238 236 234 234 240 247 237 184 180 201 227 246 263 281 253 225 216 196 186 201
245 247 249 247 245 245 243 244 240 247 252 251 252 256 258 256 252 247 245 241 240 238 238 241 230 203 212 211 220 236 248 256 260 265 274 259 230 234